Time,TemperatureF,DewpointF,PressureIn,WindDirection,WindDirectionDegrees,WindSpeedMPH,WindSpeedGustMPH,Humidity,HourlyPrecipIn,Conditions,Clouds,dailyrainin,SoftwareType,DateUTC
2013-03-26 00:00:00,18.1,13.8,30.31,NW,312,1.0,6.0,83,0.00,,,0.00,vanprod-2.3,2013-03-26 05:00:00,
2013-03-26 00:05:00,18.1,13.8,30.31,WNW,291,4.0,4.0,83,0.00,,,0.00,vanprod-2.3,2013-03-26 05:05:00,
2013-03-26 00:10:00,17.9,13.6,30.31,WNW,296,1.0,2.0,83,0.00,,,0.00,vanprod-2.3,2013-03-26 05:10:00,
2013-03-26 00:15:00,17.8,13.5,30.31,NW,322,2.0,2.0,83,0.00,,,0.00,vanprod-2.3,2013-03-26 05:15:00,
2013-03-26 00:20:00,17.6,13.3,30.31,WNW,287,2.0,2.0,83,0.00,,,0.00,vanprod-2.3,2013-03-26 05:20:00,
2013-03-26 00:25:00,17.6,13.3,30.31,WNW,291,2.0,3.0,83,0.00,,,0.00,vanprod-2.3,2013-03-26 05:25:00,
2013-03-26 00:30:00,17.5,13.2,30.31,North,354,2.0,3.0,83,0.00,,,0.00,vanprod-2.3,2013-03-26 05:30:00,
2013-03-26 00:35:00,17.3,13.0,30.31,NNW,328,2.0,3.0,83,0.00,,,0.00,vanprod-2.3,2013-03-26 05:35:00,
2013-03-26 00:40:00,17.3,13.0,30.31,NW,304,2.0,3.0,83,0.00,,,0.00,vanprod-2.3,2013-03-26 05:40:00,
2013-03-26 00:45:00,17.2,12.9,30.31,NW,319,3.0,3.0,83,0.00,,,0.00,vanprod-2.3,2013-03-26 05:45:00,
2013-03-26 00:50:00,17.0,12.7,30.31,NW,319,1.0,1.0,83,0.00,,,0.00,vanprod-2.3,2013-03-26 05:50:00,
2013-03-26 00:55:00,17.0,12.7,30.31,NW,316,4.0,4.0,83,0.00,,,0.00,vanprod-2.3,2013-03-26 05:55:00,
2013-03-26 01:00:00,16.8,12.5,30.31,WNW,303,2.0,5.0,83,0.00,,,0.00,vanprod-2.3,2013-03-26 06:00:00,
2013-03-26 01:05:00,16.8,12.5,30.31,NW,316,3.0,3.0,83,0.00,,,0.00,vanprod-2.3,2013-03-26 06:05:00,
2013-03-26 01:10:00,16.8,12.5,30.31,NNW,342,2.0,4.0,83,0.00,,,0.00,vanprod-2.3,2013-03-26 06:10:00,
2013-03-26 01:15:00,16.8,12.5,30.31,NNW,330,3.0,3.0,83,0.00,,,0.00,vanprod-2.3,2013-03-26 06:15:00,
2013-03-26 01:20:00,16.8,12.5,30.31,WNW,291,4.0,4.0,83,0.00,,,0.00,vanprod-2.3,2013-03-26 06:20:00,
2013-03-26 01:25:00,16.8,12.5,30.31,WNW,295,5.0,5.0,83,0.00,,,0.00,vanprod-2.3,2013-03-26 06:25:00,
2013-03-26 01:30:00,16.8,12.3,30.31,North,0,4.0,4.0,82,0.00,,,0.00,vanprod-2.3,2013-03-26 06:30:00,
2013-03-26 01:35:00,16.8,12.3,30.31,NNW,337,2.0,3.0,82,0.00,,,0.00,vanprod-2.3,2013-03-26 06:35:00,
2013-03-26 01:40:00,16.8,12.3,30.31,North,0,2.0,2.0,82,0.00,,,0.00,vanprod-2.3,2013-03-26 06:40:00,
2013-03-26 01:45:00,16.7,12.2,30.30,NW,324,3.0,6.0,82,0.00,,,0.00,vanprod-2.3,2013-03-26 06:45:00,
2013-03-26 01:50:00,16.7,11.9,30.31,WNW,301,2.0,2.0,81,0.00,,,0.00,vanprod-2.3,2013-03-26 06:50:00,
2013-03-26 01:55:00,16.5,11.7,30.31,NNW,337,1.0,2.0,81,0.00,,,0.00,vanprod-2.3,2013-03-26 06:55:00,
2013-03-26 02:00:00,16.5,11.7,30.30,NNW,336,2.0,2.0,81,0.00,,,0.00,vanprod-2.3,2013-03-26 07:00:00,
2013-03-26 02:05:00,16.4,11.6,30.30,West,281,4.0,5.0,81,0.00,,,0.00,vanprod-2.3,2013-03-26 07:05:00,
2013-03-26 02:10:00,16.2,11.4,30.30,NW,326,1.0,1.0,81,0.00,,,0.00,vanprod-2.3,2013-03-26 07:10:00,
2013-03-26 02:15:00,16.2,11.4,30.30,NW,313,2.0,3.0,81,0.00,,,0.00,vanprod-2.3,2013-03-26 07:15:00,
2013-03-26 02:20:00,16.0,11.2,30.30,NW,309,2.0,6.0,81,0.00,,,0.00,vanprod-2.3,2013-03-26 07:20:00,
2013-03-26 02:25:00,15.9,11.1,30.30,WNW,298,1.0,2.0,81,0.00,,,0.00,vanprod-2.3,2013-03-26 07:25:00,
2013-03-26 02:30:00,15.7,10.9,30.30,WNW,298,1.0,2.0,81,0.00,,,0.00,vanprod-2.3,2013-03-26 07:30:00,
2013-03-26 02:35:00,15.6,10.8,30.30,WNW,294,3.0,3.0,81,0.00,,,0.00,vanprod-2.3,2013-03-26 07:35:00,
2013-03-26 02:40:00,15.4,10.6,30.30,WNW,291,2.0,3.0,81,0.00,,,0.00,vanprod-2.3,2013-03-26 07:40:00,
2013-03-26 02:45:00,15.2,10.7,30.30,WNW,291,2.0,2.0,82,0.00,,,0.00,vanprod-2.3,2013-03-26 07:45:00,
2013-03-26 02:50:00,15.1,10.6,30.30,WNW,291,2.0,3.0,82,0.00,,,0.00,vanprod-2.3,2013-03-26 07:50:00,
2013-03-26 02:55:00,14.9,10.4,30.30,NW,315,1.0,3.0,82,0.00,,,0.00,vanprod-2.3,2013-03-26 07:55:00,
2013-03-26 03:00:00,14.9,10.4,30.30,NW,315,1.0,2.0,82,0.00,,,0.00,vanprod-2.3,2013-03-26 08:00:00,
2013-03-26 03:05:00,14.7,10.2,30.30,NW,315,1.0,1.0,82,0.00,,,0.00,vanprod-2.3,2013-03-26 08:05:00,
2013-03-26 03:10:00,14.6,10.4,30.30,NW,315,2.0,2.0,83,0.00,,,0.00,vanprod-2.3,2013-03-26 08:10:00,
2013-03-26 03:15:00,14.4,10.2,30.30,NW,315,1.0,2.0,83,0.00,,,0.00,vanprod-2.3,2013-03-26 08:15:00,
2013-03-26 03:20:00,14.3,10.1,30.30,NW,315,1.0,2.0,83,0.00,,,0.00,vanprod-2.3,2013-03-26 08:20:00,
2013-03-26 03:25:00,14.3,10.1,30.30,NW,315,1.0,2.0,83,0.00,,,0.00,vanprod-2.3,2013-03-26 08:25:00,
2013-03-26 03:30:00,14.1,9.9,30.30,NW,315,1.0,3.0,83,0.00,,,0.00,vanprod-2.3,2013-03-26 08:30:00,
2013-03-26 03:35:00,13.9,9.7,30.30,NW,315,1.0,2.0,83,0.00,,,0.00,vanprod-2.3,2013-03-26 08:35:00,
2013-03-26 03:40:00,13.8,9.6,30.30,NW,315,0.0,2.0,83,0.00,,,0.00,vanprod-2.3,2013-03-26 08:40:00,
2013-03-26 03:45:00,13.6,9.7,30.30,NW,315,1.0,3.0,84,0.00,,,0.00,vanprod-2.3,2013-03-26 08:45:00,
2013-03-26 03:50:00,13.5,9.6,30.30,NW,315,1.0,1.0,84,0.00,,,0.00,vanprod-2.3,2013-03-26 08:50:00,
2013-03-26 03:55:00,13.1,9.2,30.30,NW,315,0.0,1.0,84,0.00,,,0.00,vanprod-2.3,2013-03-26 08:55:00,
2013-03-26 04:00:00,13.1,9.2,30.30,NW,315,1.0,1.0,84,0.00,,,0.00,vanprod-2.3,2013-03-26 09:00:00,
2013-03-26 04:05:00,13.0,9.1,30.30,NW,315,0.0,2.0,84,0.00,,,0.00,vanprod-2.3,2013-03-26 09:05:00,
2013-03-26 04:10:00,13.0,9.1,30.30,NW,315,1.0,1.0,84,0.00,,,0.00,vanprod-2.3,2013-03-26 09:10:00,
2013-03-26 04:15:00,13.0,9.1,30.30,NW,315,1.0,2.0,84,0.00,,,0.00,vanprod-2.3,2013-03-26 09:15:00,
2013-03-26 04:20:00,12.8,8.9,30.30,NW,315,2.0,2.0,84,0.00,,,0.00,vanprod-2.3,2013-03-26 09:20:00,
2013-03-26 04:25:00,12.8,8.9,30.30,NW,315,2.0,2.0,84,0.00,,,0.00,vanprod-2.3,2013-03-26 09:25:00,
2013-03-26 04:30:00,12.6,8.7,30.30,NW,305,2.0,2.0,84,0.00,,,0.00,vanprod-2.3,2013-03-26 09:30:00,
2013-03-26 04:35:00,12.6,8.7,30.30,NW,304,2.0,3.0,84,0.00,,,0.00,vanprod-2.3,2013-03-26 09:35:00,
2013-03-26 04:40:00,12.6,9.0,30.31,NW,304,1.0,3.0,85,0.00,,,0.00,vanprod-2.3,2013-03-26 09:40:00,
2013-03-26 04:45:00,12.4,8.5,30.31,WNW,284,2.0,3.0,84,0.00,,,0.00,vanprod-2.3,2013-03-26 09:45:00,
2013-03-26 04:50:00,12.4,8.5,30.31,West,278,2.0,2.0,84,0.00,,,0.00,vanprod-2.3,2013-03-26 09:50:00,
2013-03-26 04:55:00,12.4,8.5,30.31,West,280,2.0,6.0,84,0.00,,,0.00,vanprod-2.3,2013-03-26 09:55:00,
2013-03-26 05:00:00,12.4,8.5,30.30,WNW,289,2.0,2.0,84,0.00,,,0.00,vanprod-2.3,2013-03-26 10:00:00,
2013-03-26 05:05:00,12.4,8.5,30.30,WNW,289,2.0,2.0,84,0.00,,,0.00,vanprod-2.3,2013-03-26 10:05:00,
2013-03-26 05:10:00,12.4,8.5,30.30,WNW,292,1.0,6.0,84,0.00,,,0.00,vanprod-2.3,2013-03-26 10:10:00,
2013-03-26 05:15:00,12.4,8.5,30.30,WNW,294,3.0,5.0,84,0.00,,,0.00,vanprod-2.3,2013-03-26 10:15:00,
2013-03-26 05:20:00,12.6,9.0,30.31,WNW,294,3.0,3.0,85,0.00,,,0.00,vanprod-2.3,2013-03-26 10:20:00,
2013-03-26 05:25:00,12.6,9.0,30.31,NW,311,4.0,4.0,85,0.00,,,0.00,vanprod-2.3,2013-03-26 10:25:00,
2013-03-26 05:30:00,12.8,8.9,30.31,NW,311,2.0,2.0,84,0.00,,,0.00,vanprod-2.3,2013-03-26 10:30:00,
2013-03-26 05:35:00,12.8,9.2,30.31,NW,309,3.0,3.0,85,0.00,,,0.00,vanprod-2.3,2013-03-26 10:35:00,
2013-03-26 05:40:00,12.8,9.2,30.30,NW,307,2.0,2.0,85,0.00,,,0.00,vanprod-2.3,2013-03-26 10:40:00,
2013-03-26 05:45:00,13.0,9.1,30.31,NNW,343,2.0,5.0,84,0.00,,,0.00,vanprod-2.3,2013-03-26 10:45:00,
2013-03-26 05:50:00,13.1,9.2,30.31,NNW,342,2.0,2.0,84,0.00,,,0.00,vanprod-2.3,2013-03-26 10:50:00,
2013-03-26 05:55:00,13.1,9.2,30.31,NNW,341,3.0,5.0,84,0.00,,,0.00,vanprod-2.3,2013-03-26 10:55:00,
2013-03-26 06:00:00,13.1,9.2,30.31,NNW,339,2.0,3.0,84,0.00,,,0.00,vanprod-2.3,2013-03-26 11:00:00,
2013-03-26 06:05:00,13.3,9.6,30.31,NNW,332,3.0,3.0,85,0.00,,,0.00,vanprod-2.3,2013-03-26 11:05:00,
2013-03-26 06:10:00,13.3,9.6,30.31,NW,316,3.0,3.0,85,0.00,,,0.00,vanprod-2.3,2013-03-26 11:10:00,
2013-03-26 06:15:00,13.5,9.8,30.31,NW,316,3.0,4.0,85,0.00,,,0.00,vanprod-2.3,2013-03-26 11:15:00,
2013-03-26 06:20:00,13.5,9.8,30.31,NW,316,2.0,3.0,85,0.00,,,0.00,vanprod-2.3,2013-03-26 11:20:00,
2013-03-26 06:25:00,13.5,9.8,30.31,NW,316,3.0,3.0,85,0.00,,,0.00,vanprod-2.3,2013-03-26 11:25:00,
2013-03-26 06:30:00,13.3,9.6,30.31,NW,315,2.0,2.0,85,0.00,,,0.00,vanprod-2.3,2013-03-26 11:30:00,
2013-03-26 06:35:00,13.3,9.6,30.31,NW,317,4.0,6.0,85,0.00,,,0.00,vanprod-2.3,2013-03-26 11:35:00,
2013-03-26 06:40:00,13.3,9.6,30.31,NW,318,3.0,6.0,85,0.00,,,0.00,vanprod-2.3,2013-03-26 11:40:00,
2013-03-26 06:45:00,13.3,9.6,30.31,NW,318,2.0,6.0,85,0.00,,,0.00,vanprod-2.3,2013-03-26 11:45:00,
2013-03-26 06:50:00,13.1,9.4,30.31,NW,318,3.0,3.0,85,0.00,,,0.00,vanprod-2.3,2013-03-26 11:50:00,
2013-03-26 06:55:00,13.1,9.4,30.31,NW,316,3.0,3.0,85,0.00,,,0.00,vanprod-2.3,2013-03-26 11:55:00,
2013-03-26 07:00:00,13.0,9.3,30.31,NW,315,2.0,2.0,85,0.00,,,0.00,vanprod-2.3,2013-03-26 12:00:00,
2013-03-26 07:05:00,12.8,9.2,30.31,NW,313,2.0,2.0,85,0.00,,,0.00,vanprod-2.3,2013-03-26 12:05:00,
2013-03-26 07:10:00,12.6,9.0,30.32,NW,312,3.0,3.0,85,0.00,,,0.00,vanprod-2.3,2013-03-26 12:10:00,
2013-03-26 07:15:00,12.4,8.8,30.32,NW,312,2.0,2.0,85,0.00,,,0.00,vanprod-2.3,2013-03-26 12:15:00,
2013-03-26 07:20:00,12.3,8.7,30.32,NW,311,2.0,3.0,85,0.00,,,0.00,vanprod-2.3,2013-03-26 12:20:00,
2013-03-26 07:25:00,12.3,8.7,30.32,NW,311,2.0,2.0,85,0.00,,,0.00,vanprod-2.3,2013-03-26 12:25:00,
2013-03-26 07:30:00,12.1,8.5,30.32,NW,311,2.0,5.0,85,0.00,,,0.00,vanprod-2.3,2013-03-26 12:30:00,
2013-03-26 07:35:00,12.1,8.5,30.32,NW,310,2.0,2.0,85,0.00,,,0.00,vanprod-2.3,2013-03-26 12:35:00,
2013-03-26 07:40:00,12.1,8.5,30.32,NW,308,3.0,3.0,85,0.00,,,0.00,vanprod-2.3,2013-03-26 12:40:00,
2013-03-26 07:45:00,12.3,8.7,30.32,NW,309,2.0,4.0,85,0.00,,,0.00,vanprod-2.3,2013-03-26 12:45:00,
2013-03-26 07:50:00,12.3,8.7,30.32,NW,309,2.0,3.0,85,0.00,,,0.00,vanprod-2.3,2013-03-26 12:50:00,
2013-03-26 07:55:00,12.4,8.8,30.32,NW,307,2.0,5.0,85,0.00,,,0.00,vanprod-2.3,2013-03-26 12:55:00,
2013-03-26 08:00:00,12.8,9.2,30.33,NW,308,2.0,2.0,85,0.00,,,0.00,vanprod-2.3,2013-03-26 13:00:00,
2013-03-26 08:05:00,12.8,8.9,30.33,NW,305,3.0,5.0,84,0.00,,,0.00,vanprod-2.3,2013-03-26 13:05:00,
2013-03-26 08:10:00,13.0,8.8,30.33,NW,308,4.0,4.0,83,0.00,,,0.00,vanprod-2.3,2013-03-26 13:10:00,
2013-03-26 08:15:00,13.1,8.9,30.33,NW,305,2.0,7.0,83,0.00,,,0.00,vanprod-2.3,2013-03-26 13:15:00,
2013-03-26 08:20:00,13.1,8.9,30.33,NW,305,2.0,4.0,83,0.00,,,0.00,vanprod-2.3,2013-03-26 13:20:00,
2013-03-26 08:25:00,13.3,8.8,30.33,NW,312,3.0,3.0,82,0.00,,,0.00,vanprod-2.3,2013-03-26 13:25:00,
2013-03-26 08:30:00,13.3,8.8,30.33,NW,309,3.0,4.0,82,0.00,,,0.00,vanprod-2.3,2013-03-26 13:30:00,
2013-03-26 08:35:00,13.5,8.8,30.33,NW,308,2.0,2.0,81,0.00,,,0.00,vanprod-2.3,2013-03-26 13:35:00,
2013-03-26 08:40:00,13.5,8.8,30.33,NW,315,3.0,3.0,81,0.00,,,0.00,vanprod-2.3,2013-03-26 13:40:00,
2013-03-26 08:45:00,13.6,8.9,30.33,NW,320,2.0,0.0,81,0.00,,,0.00,vanprod-2.3,2013-03-26 13:45:00,
2013-03-26 08:50:00,13.9,9.2,30.33,NW,320,2.0,2.0,81,0.00,,,0.00,vanprod-2.3,2013-03-26 13:50:00,
2013-03-26 08:55:00,14.1,9.1,30.33,NW,322,4.0,4.0,80,0.00,,,0.00,vanprod-2.3,2013-03-26 13:55:00,
2013-03-26 09:00:00,14.3,9.3,30.33,NW,322,2.0,4.0,80,0.00,,,0.00,vanprod-2.3,2013-03-26 14:00:00,
2013-03-26 09:05:00,14.3,9.3,30.33,NW,320,4.0,4.0,80,0.00,,,0.00,vanprod-2.3,2013-03-26 14:05:00,
2013-03-26 09:10:00,14.6,9.3,30.33,NW,320,4.0,6.0,79,0.00,,,0.00,vanprod-2.3,2013-03-26 14:10:00,
2013-03-26 09:15:00,14.6,9.3,30.33,NW,315,3.0,3.0,79,0.00,,,0.00,vanprod-2.3,2013-03-26 14:15:00,
2013-03-26 09:20:00,14.7,9.4,30.33,NW,315,2.0,2.0,79,0.00,,,0.00,vanprod-2.3,2013-03-26 14:20:00,
2013-03-26 09:25:00,15.2,9.9,30.33,NW,315,1.0,3.0,79,0.00,,,0.00,vanprod-2.3,2013-03-26 14:25:00,
2013-03-26 09:30:00,15.6,10.0,30.33,NW,315,3.0,6.0,78,0.00,,,0.00,vanprod-2.3,2013-03-26 14:30:00,
2013-03-26 09:35:00,15.7,10.1,30.33,NW,315,3.0,3.0,78,0.00,,,0.00,vanprod-2.3,2013-03-26 14:35:00,
2013-03-26 09:40:00,16.0,10.4,30.33,NW,315,2.0,2.0,78,0.00,,,0.00,vanprod-2.3,2013-03-26 14:40:00,
2013-03-26 09:45:00,16.5,10.6,30.34,NW,315,3.0,3.0,77,0.00,,,0.00,vanprod-2.3,2013-03-26 14:45:00,
2013-03-26 09:50:00,16.7,10.8,30.34,NW,315,3.0,3.0,77,0.00,,,0.00,vanprod-2.3,2013-03-26 14:50:00,
2013-03-26 09:55:00,16.8,10.9,30.34,NW,315,2.0,2.0,77,0.00,,,0.00,vanprod-2.3,2013-03-26 14:55:00,
2013-03-26 10:00:00,17.0,10.8,30.34,NW,315,2.0,2.0,76,0.00,,,0.00,vanprod-2.3,2013-03-26 15:00:00,
2013-03-26 10:05:00,17.3,11.0,30.34,NW,313,3.0,0.0,76,0.00,,,0.00,vanprod-2.3,2013-03-26 15:05:00,
2013-03-26 10:10:00,17.6,11.3,30.34,NNW,329,3.0,3.0,76,0.00,,,0.00,vanprod-2.3,2013-03-26 15:10:00,
2013-03-26 10:15:00,17.8,11.5,30.34,NNW,328,2.0,2.0,76,0.00,,,0.00,vanprod-2.3,2013-03-26 15:15:00,
2013-03-26 10:20:00,18.3,12.0,30.34,NNW,328,1.0,2.0,76,0.00,,,0.00,vanprod-2.3,2013-03-26 15:20:00,
2013-03-26 10:25:00,18.6,12.0,30.34,NW,323,3.0,5.0,75,0.00,,,0.00,vanprod-2.3,2013-03-26 15:25:00,
2013-03-26 10:30:00,18.9,12.0,30.34,NW,323,2.0,2.0,74,0.00,,,0.00,vanprod-2.3,2013-03-26 15:30:00,
2013-03-26 10:35:00,18.9,12.0,30.34,NW,320,3.0,3.0,74,0.00,,,0.00,vanprod-2.3,2013-03-26 15:35:00,
2013-03-26 10:40:00,18.9,12.0,30.34,NW,322,3.0,3.0,74,0.00,,,0.00,vanprod-2.3,2013-03-26 15:40:00,
2013-03-26 10:45:00,18.6,12.0,30.34,North,358,4.0,4.0,75,0.00,,,0.00,vanprod-2.3,2013-03-26 15:45:00,
2013-03-26 10:50:00,18.9,12.0,30.34,North,0,4.0,4.0,74,0.00,,,0.00,vanprod-2.3,2013-03-26 15:50:00,
2013-03-26 10:55:00,19.0,12.4,30.33,North,0,2.0,2.0,75,0.00,,,0.00,vanprod-2.3,2013-03-26 15:55:00,
2013-03-26 11:00:00,19.7,12.5,30.33,North,0,3.0,3.0,73,0.00,,,0.00,vanprod-2.3,2013-03-26 16:00:00,
2013-03-26 11:05:00,20.1,12.8,30.33,North,354,2.0,0.0,73,0.00,,,0.00,vanprod-2.3,2013-03-26 16:05:00,
2013-03-26 11:10:00,20.6,13.3,30.33,North,354,2.0,5.0,73,0.00,,,0.00,vanprod-2.3,2013-03-26 16:10:00,
2013-03-26 11:15:00,20.8,13.2,30.33,NNW,347,2.0,2.0,72,0.00,,,0.00,vanprod-2.3,2013-03-26 16:15:00,
2013-03-26 11:20:00,21.1,13.5,30.34,NNW,347,2.0,2.0,72,0.00,,,0.00,vanprod-2.3,2013-03-26 16:20:00,
2013-03-26 11:25:00,21.1,13.5,30.34,NNW,346,2.0,3.0,72,0.00,,,0.00,vanprod-2.3,2013-03-26 16:25:00,
2013-03-26 11:30:00,21.1,13.5,30.34,NNW,340,3.0,3.0,72,0.00,,,0.00,vanprod-2.3,2013-03-26 16:30:00,
2013-03-26 11:35:00,21.1,13.5,30.34,NNW,340,3.0,3.0,72,0.00,,,0.00,vanprod-2.3,2013-03-26 16:35:00,
2013-03-26 11:40:00,21.3,13.4,30.33,NNW,339,3.0,3.0,71,0.00,,,0.00,vanprod-2.3,2013-03-26 16:40:00,
2013-03-26 11:45:00,21.6,13.7,30.33,NNW,339,2.0,6.0,71,0.00,,,0.00,vanprod-2.3,2013-03-26 16:45:00,
2013-03-26 11:50:00,22.0,13.7,30.33,NNW,339,2.0,0.0,70,0.00,,,0.00,vanprod-2.3,2013-03-26 16:50:00,
2013-03-26 11:55:00,22.7,14.4,30.33,NNW,339,1.0,0.0,70,0.00,,,0.00,vanprod-2.3,2013-03-26 16:55:00,
2013-03-26 12:00:00,23.0,14.4,30.33,NNW,340,4.0,5.0,69,0.00,,,0.00,vanprod-2.3,2013-03-26 17:00:00,
2013-03-26 12:05:00,23.1,14.1,30.33,NNW,333,4.0,10.0,68,0.00,,,0.00,vanprod-2.3,2013-03-26 17:05:00,
2013-03-26 12:10:00,23.1,14.5,30.33,NNW,336,2.0,3.0,69,0.00,,,0.00,vanprod-2.3,2013-03-26 17:10:00,
2013-03-26 12:15:00,23.6,15.3,30.33,NNW,336,1.0,2.0,70,0.00,,,0.00,vanprod-2.3,2013-03-26 17:15:00,
2013-03-26 12:20:00,23.6,14.6,30.32,NNW,344,4.0,6.0,68,0.00,,,0.00,vanprod-2.3,2013-03-26 17:20:00,
2013-03-26 12:25:00,23.6,14.6,30.32,North,349,4.0,4.0,68,0.00,,,0.00,vanprod-2.3,2013-03-26 17:25:00,
2013-03-26 12:30:00,24.2,15.5,30.33,North,349,1.0,0.0,69,0.00,,,0.00,vanprod-2.3,2013-03-26 17:30:00,
2013-03-26 12:35:00,24.8,15.8,30.33,North,349,1.0,5.0,68,0.00,,,0.00,vanprod-2.3,2013-03-26 17:35:00,
2013-03-26 12:40:00,25.1,15.4,30.32,North,349,3.0,3.0,66,0.00,,,0.00,vanprod-2.3,2013-03-26 17:40:00,
2013-03-26 12:45:00,25.1,15.7,30.32,North,349,3.0,3.0,67,0.00,,,0.00,vanprod-2.3,2013-03-26 17:45:00,
2013-03-26 12:50:00,25.1,15.7,30.32,NNW,347,3.0,3.0,67,0.00,,,0.00,vanprod-2.3,2013-03-26 17:50:00,
2013-03-26 12:55:00,25.2,15.5,30.32,NNW,347,3.0,6.0,66,0.00,,,0.00,vanprod-2.3,2013-03-26 17:55:00,
2013-03-26 13:00:00,24.9,15.8,30.32,North,354,3.0,3.0,68,0.00,,,0.00,vanprod-2.3,2013-03-26 18:00:00,
2013-03-26 13:05:00,25.5,16.4,30.32,North,354,0.0,0.0,68,0.00,,,0.00,vanprod-2.3,2013-03-26 18:05:00,
2013-03-26 13:10:00,25.9,16.1,30.32,North,354,2.0,6.0,66,0.00,,,0.00,vanprod-2.3,2013-03-26 18:10:00,
2013-03-26 13:15:00,26.1,16.7,30.32,North,353,2.0,2.0,67,0.00,,,0.00,vanprod-2.3,2013-03-26 18:15:00,
2013-03-26 13:20:00,26.4,16.9,30.32,North,353,1.0,0.0,67,0.00,,,0.00,vanprod-2.3,2013-03-26 18:20:00,
2013-03-26 13:25:00,26.4,16.2,30.32,North,353,2.0,2.0,65,0.00,,,0.00,vanprod-2.3,2013-03-26 18:25:00,
2013-03-26 13:30:00,25.9,16.5,30.32,NNW,340,3.0,5.0,67,0.00,,,0.00,vanprod-2.3,2013-03-26 18:30:00,
2013-03-26 13:35:00,25.9,16.5,30.32,NNW,340,3.0,3.0,67,0.00,,,0.00,vanprod-2.3,2013-03-26 18:35:00,
2013-03-26 13:40:00,26.1,17.0,30.32,NNW,340,2.0,2.0,68,0.00,,,0.00,vanprod-2.3,2013-03-26 18:40:00,
2013-03-26 13:45:00,26.4,17.3,30.32,NNW,340,3.0,7.0,68,0.00,,,0.00,vanprod-2.3,2013-03-26 18:45:00,
2013-03-26 13:50:00,26.7,17.2,30.32,NNW,340,3.0,3.0,67,0.00,,,0.00,vanprod-2.3,2013-03-26 18:50:00,
2013-03-26 13:55:00,27.1,16.9,30.32,NNW,340,2.0,2.0,65,0.00,,,0.00,vanprod-2.3,2013-03-26 18:55:00,
2013-03-26 14:00:00,27.4,17.2,30.32,NNW,340,2.0,5.0,65,0.00,,,0.00,vanprod-2.3,2013-03-26 19:00:00,
2013-03-26 14:05:00,27.1,16.9,30.32,NNW,336,2.0,2.0,65,0.00,,,0.00,vanprod-2.3,2013-03-26 19:05:00,
2013-03-26 14:10:00,27.6,17.0,30.31,NNW,334,3.0,3.0,64,0.00,,,0.00,vanprod-2.3,2013-03-26 19:10:00,
2013-03-26 14:15:00,27.3,17.1,30.31,NNW,333,2.0,3.0,65,0.00,,,0.00,vanprod-2.3,2013-03-26 19:15:00,
2013-03-26 14:20:00,27.0,17.2,30.31,NNW,333,3.0,3.0,66,0.00,,,0.00,vanprod-2.3,2013-03-26 19:20:00,
2013-03-26 14:25:00,27.0,16.8,30.31,NNW,342,2.0,0.0,65,0.00,,,0.00,vanprod-2.3,2013-03-26 19:25:00,
2013-03-26 14:30:00,27.3,17.8,30.31,NNW,342,2.0,6.0,67,0.00,,,0.00,vanprod-2.3,2013-03-26 19:30:00,
2013-03-26 14:35:00,27.1,17.6,30.31,NNW,342,2.0,7.0,67,0.00,,,0.00,vanprod-2.3,2013-03-26 19:35:00,
2013-03-26 14:40:00,27.4,18.2,30.31,NNW,342,2.0,2.0,68,0.00,,,0.00,vanprod-2.3,2013-03-26 19:40:00,
2013-03-26 14:45:00,28.0,18.1,30.31,NNW,342,2.0,4.0,66,0.00,,,0.00,vanprod-2.3,2013-03-26 19:45:00,
2013-03-26 14:50:00,28.2,18.0,30.31,NNW,342,2.0,2.0,65,0.00,,,0.00,vanprod-2.3,2013-03-26 19:50:00,
2013-03-26 14:55:00,28.6,19.4,30.31,NNW,342,1.0,0.0,68,0.00,,,0.00,vanprod-2.3,2013-03-26 19:55:00,
2013-03-26 15:00:00,28.9,18.6,30.31,NNW,342,3.0,3.0,65,0.00,,,0.00,vanprod-2.3,2013-03-26 20:00:00,
2013-03-26 15:05:00,28.8,18.5,30.31,NNW,342,1.0,0.0,65,0.00,,,0.00,vanprod-2.3,2013-03-26 20:05:00,
2013-03-26 15:10:00,28.6,18.3,30.31,NNW,340,3.0,3.0,65,0.00,,,0.00,vanprod-2.3,2013-03-26 20:10:00,
2013-03-26 15:15:00,28.3,18.8,30.30,NW,313,3.0,3.0,67,0.00,,,0.00,vanprod-2.3,2013-03-26 20:15:00,
2013-03-26 15:20:00,28.2,18.3,30.30,NW,319,4.0,4.0,66,0.00,,,0.00,vanprod-2.3,2013-03-26 20:20:00,
2013-03-26 15:25:00,27.9,18.4,30.30,NW,319,3.0,3.0,67,0.00,,,0.00,vanprod-2.3,2013-03-26 20:25:00,
2013-03-26 15:30:00,28.3,18.1,30.30,NW,319,3.0,3.0,65,0.00,,,0.00,vanprod-2.3,2013-03-26 20:30:00,
2013-03-26 15:35:00,28.6,18.3,30.29,NW,319,2.0,2.0,65,0.00,,,0.00,vanprod-2.3,2013-03-26 20:35:00,
2013-03-26 15:40:00,28.8,18.2,30.29,NW,319,2.0,3.0,64,0.00,,,0.00,vanprod-2.3,2013-03-26 20:40:00,
2013-03-26 15:45:00,29.0,18.7,30.29,NW,319,2.0,2.0,65,0.00,,,0.00,vanprod-2.3,2013-03-26 20:45:00,
2013-03-26 15:50:00,29.3,19.0,30.29,NW,319,3.0,5.0,65,0.00,,,0.00,vanprod-2.3,2013-03-26 20:50:00,
2013-03-26 15:55:00,29.0,18.7,30.29,NW,319,3.0,3.0,65,0.00,,,0.00,vanprod-2.3,2013-03-26 20:55:00,
2013-03-26 16:00:00,28.8,18.5,30.29,NW,319,2.0,0.0,65,0.00,,,0.00,vanprod-2.3,2013-03-26 21:00:00,
2013-03-26 16:05:00,29.2,18.9,30.29,NW,319,2.0,5.0,65,0.00,,,0.00,vanprod-2.3,2013-03-26 21:05:00,
2013-03-26 16:10:00,29.3,18.6,30.29,NW,319,2.0,0.0,64,0.00,,,0.00,vanprod-2.3,2013-03-26 21:10:00,
2013-03-26 16:15:00,29.2,18.9,30.28,NW,319,3.0,3.0,65,0.00,,,0.00,vanprod-2.3,2013-03-26 21:15:00,
2013-03-26 16:20:00,29.0,19.4,30.28,NW,319,2.0,3.0,67,0.00,,,0.00,vanprod-2.3,2013-03-26 21:20:00,
2013-03-26 16:25:00,29.2,18.9,30.28,NW,319,2.0,2.0,65,0.00,,,0.00,vanprod-2.3,2013-03-26 21:25:00,
2013-03-26 16:30:00,29.6,19.3,30.28,NW,319,2.0,0.0,65,0.00,,,0.00,vanprod-2.3,2013-03-26 21:30:00,
2013-03-26 16:35:00,29.6,18.9,30.28,NW,319,3.0,3.0,64,0.00,,,0.00,vanprod-2.3,2013-03-26 21:35:00,
2013-03-26 16:40:00,29.2,18.9,30.28,NW,322,3.0,3.0,65,0.00,,,0.00,vanprod-2.3,2013-03-26 21:40:00,
2013-03-26 16:45:00,29.2,18.9,30.28,NW,322,1.0,2.0,65,0.00,,,0.00,vanprod-2.3,2013-03-26 21:45:00,
2013-03-26 16:50:00,29.5,19.2,30.28,NW,322,1.0,5.0,65,0.00,,,0.00,vanprod-2.3,2013-03-26 21:50:00,
2013-03-26 16:55:00,29.5,19.2,30.28,NW,322,1.0,1.0,65,0.00,,,0.00,vanprod-2.3,2013-03-26 21:55:00,
2013-03-26 17:00:00,29.8,19.1,30.28,NW,322,1.0,2.0,64,0.00,,,0.00,vanprod-2.3,2013-03-26 22:00:00,
2013-03-26 17:05:00,29.9,18.9,30.28,NW,322,0.0,0.0,63,0.00,,,0.00,vanprod-2.3,2013-03-26 22:05:00,
2013-03-26 17:10:00,30.2,19.5,30.28,NW,322,1.0,0.0,64,0.00,,,0.00,vanprod-2.3,2013-03-26 22:10:00,
2013-03-26 17:15:00,30.5,19.4,30.28,NW,322,2.0,2.0,63,0.00,,,0.00,vanprod-2.3,2013-03-26 22:15:00,
2013-03-26 17:20:00,30.1,19.0,30.28,NW,322,1.0,0.0,63,0.00,,,0.00,vanprod-2.3,2013-03-26 22:20:00,
2013-03-26 17:25:00,29.6,19.3,30.27,NW,322,4.0,7.0,65,0.00,,,0.00,vanprod-2.3,2013-03-26 22:25:00,
2013-03-26 17:30:00,29.2,18.9,30.27,NW,322,0.0,1.0,65,0.00,,,0.00,vanprod-2.3,2013-03-26 22:30:00,
2013-03-26 17:35:00,29.3,19.0,30.27,NW,322,1.0,2.0,65,0.00,,,0.00,vanprod-2.3,2013-03-26 22:35:00,
2013-03-26 17:40:00,29.2,19.3,30.27,NW,322,3.0,3.0,66,0.00,,,0.00,vanprod-2.3,2013-03-26 22:40:00,
2013-03-26 17:45:00,28.5,19.0,30.27,NW,322,1.0,2.0,67,0.00,,,0.00,vanprod-2.3,2013-03-26 22:45:00,
2013-03-26 17:50:00,27.9,19.1,30.27,NW,322,4.0,4.0,69,0.00,,,0.00,vanprod-2.3,2013-03-26 22:50:00,
2013-03-26 17:55:00,27.4,18.6,30.28,NW,322,3.0,5.0,69,0.00,,,0.00,vanprod-2.3,2013-03-26 22:55:00,
2013-03-26 18:00:00,27.3,18.8,30.27,NW,323,4.0,4.0,70,0.00,,,0.00,vanprod-2.3,2013-03-26 23:00:00,
2013-03-26 18:05:00,27.1,18.6,30.27,NW,323,2.0,2.0,70,0.00,,,0.00,vanprod-2.3,2013-03-26 23:05:00,
2013-03-26 18:10:00,27.0,18.9,30.28,NW,323,2.0,5.0,71,0.00,,,0.00,vanprod-2.3,2013-03-26 23:10:00,
2013-03-26 18:15:00,27.0,19.2,30.27,NW,323,2.0,3.0,72,0.00,,,0.00,vanprod-2.3,2013-03-26 23:15:00,
2013-03-26 18:20:00,26.7,18.6,30.27,NW,323,3.0,4.0,71,0.00,,,0.00,vanprod-2.3,2013-03-26 23:20:00,
2013-03-26 18:25:00,26.7,19.2,30.27,NW,323,1.0,3.0,73,0.00,,,0.00,vanprod-2.3,2013-03-26 23:25:00,
2013-03-26 18:30:00,26.5,18.7,30.27,NW,323,3.0,5.0,72,0.00,,,0.00,vanprod-2.3,2013-03-26 23:30:00,
2013-03-26 18:35:00,26.2,18.7,30.27,NW,323,3.0,3.0,73,0.00,,,0.00,vanprod-2.3,2013-03-26 23:35:00,
2013-03-26 18:40:00,25.9,18.5,30.27,NW,323,3.0,3.0,73,0.00,,,0.00,vanprod-2.3,2013-03-26 23:40:00,
2013-03-26 18:45:00,25.8,18.4,30.27,NW,323,4.0,4.0,73,0.00,,,0.00,vanprod-2.3,2013-03-26 23:45:00,
2013-03-26 18:50:00,25.5,18.4,30.27,NW,323,1.0,2.0,74,0.00,,,0.00,vanprod-2.3,2013-03-26 23:50:00,
2013-03-26 18:55:00,25.3,18.2,30.27,NW,323,3.0,3.0,74,0.00,,,0.00,vanprod-2.3,2013-03-26 23:55:00,
2013-03-26 19:00:00,25.2,18.1,30.27,NW,323,3.0,5.0,74,0.00,,,0.00,vanprod-2.3,2013-03-27 00:00:00,
2013-03-26 19:05:00,25.1,18.0,30.27,NW,323,1.0,3.0,74,0.00,,,0.00,vanprod-2.3,2013-03-27 00:05:00,
2013-03-26 19:10:00,25.1,18.3,30.28,NW,323,1.0,2.0,75,0.00,,,0.00,vanprod-2.3,2013-03-27 00:10:00,
2013-03-26 19:15:00,24.9,18.1,30.28,NW,323,0.0,2.0,75,0.00,,,0.00,vanprod-2.3,2013-03-27 00:15:00,
2013-03-26 19:20:00,24.9,18.1,30.28,NW,323,0.0,0.0,75,0.00,,,0.00,vanprod-2.3,2013-03-27 00:20:00,
2013-03-26 19:25:00,24.8,18.0,30.28,NW,323,0.0,1.0,75,0.00,,,0.00,vanprod-2.3,2013-03-27 00:25:00,
2013-03-26 19:30:00,24.6,18.1,30.28,NW,323,0.0,0.0,76,0.00,,,0.00,vanprod-2.3,2013-03-27 00:30:00,
2013-03-26 19:35:00,24.6,18.1,30.27,NW,323,0.0,0.0,76,0.00,,,0.00,vanprod-2.3,2013-03-27 00:35:00,
2013-03-26 19:40:00,24.5,18.0,30.27,NW,323,0.0,1.0,76,0.00,,,0.00,vanprod-2.3,2013-03-27 00:40:00,
2013-03-26 19:45:00,24.3,18.1,30.27,NW,323,0.0,1.0,77,0.00,,,0.00,vanprod-2.3,2013-03-27 00:45:00,
2013-03-26 19:50:00,24.2,18.3,30.27,NW,323,1.0,1.0,78,0.00,,,0.00,vanprod-2.3,2013-03-27 00:50:00,
2013-03-26 19:55:00,23.9,18.1,30.27,NW,323,0.0,2.0,78,0.00,,,0.00,vanprod-2.3,2013-03-27 00:55:00,
2013-03-26 20:00:00,23.7,18.2,30.27,NW,323,1.0,3.0,79,0.00,,,0.00,vanprod-2.3,2013-03-27 01:00:00,
2013-03-26 20:05:00,23.6,18.3,30.27,NW,323,0.0,0.0,80,0.00,,,0.00,vanprod-2.3,2013-03-27 01:05:00,
2013-03-26 20:10:00,23.4,18.2,30.27,NW,323,0.0,1.0,80,0.00,,,0.00,vanprod-2.3,2013-03-27 01:10:00,
2013-03-26 20:15:00,23.3,18.1,30.26,NW,323,1.0,1.0,80,0.00,,,0.00,vanprod-2.3,2013-03-27 01:15:00,
2013-03-26 20:20:00,23.1,18.1,30.26,NW,323,2.0,2.0,81,0.00,,,0.00,vanprod-2.3,2013-03-27 01:20:00,
2013-03-26 20:25:00,23.0,18.1,30.26,NW,323,2.0,2.0,81,0.00,,,0.00,vanprod-2.3,2013-03-27 01:25:00,
2013-03-26 20:30:00,22.8,17.9,30.27,NW,323,1.0,1.0,81,0.00,,,0.00,vanprod-2.3,2013-03-27 01:30:00,
2013-03-26 20:35:00,22.7,17.8,30.27,NW,323,1.0,2.0,81,0.00,,,0.00,vanprod-2.3,2013-03-27 01:35:00,
2013-03-26 20:40:00,22.5,17.8,30.26,NW,323,1.0,2.0,82,0.00,,,0.00,vanprod-2.3,2013-03-27 01:40:00,
2013-03-26 20:45:00,22.4,17.7,30.27,NW,323,0.0,1.0,82,0.00,,,0.00,vanprod-2.3,2013-03-27 01:45:00,
2013-03-26 20:50:00,22.2,17.6,30.27,NW,323,0.0,0.0,82,0.00,,,0.00,vanprod-2.3,2013-03-27 01:50:00,
2013-03-26 20:55:00,22.2,17.6,30.27,NW,323,0.0,0.0,82,0.00,,,0.00,vanprod-2.3,2013-03-27 01:55:00,
2013-03-26 21:00:00,22.0,17.4,30.27,NW,323,0.0,0.0,82,0.00,,,0.00,vanprod-2.3,2013-03-27 02:00:00,
2013-03-26 21:05:00,21.9,17.3,30.27,NW,323,0.0,1.0,82,0.00,,,0.00,vanprod-2.3,2013-03-27 02:05:00,
2013-03-26 21:10:00,21.7,17.3,30.27,NW,323,0.0,0.0,83,0.00,,,0.00,vanprod-2.3,2013-03-27 02:10:00,
2013-03-26 21:15:00,21.7,17.3,30.27,NW,323,0.0,0.0,83,0.00,,,0.00,vanprod-2.3,2013-03-27 02:15:00,
2013-03-26 21:20:00,21.6,17.2,30.27,NW,323,0.0,0.0,83,0.00,,,0.00,vanprod-2.3,2013-03-27 02:20:00,
2013-03-26 21:25:00,21.6,17.2,30.27,NW,323,0.0,1.0,83,0.00,,,0.00,vanprod-2.3,2013-03-27 02:25:00,
2013-03-26 21:30:00,21.4,17.3,30.27,NW,323,0.0,0.0,84,0.00,,,0.00,vanprod-2.3,2013-03-27 02:30:00,
2013-03-26 21:35:00,21.4,17.3,30.28,NW,323,0.0,0.0,84,0.00,,,0.00,vanprod-2.3,2013-03-27 02:35:00,
2013-03-26 21:40:00,21.4,17.1,30.28,NW,323,0.0,0.0,83,0.00,,,0.00,vanprod-2.3,2013-03-27 02:40:00,
2013-03-26 21:45:00,21.4,17.1,30.28,NW,323,0.0,0.0,83,0.00,,,0.00,vanprod-2.3,2013-03-27 02:45:00,
2013-03-26 21:50:00,21.3,17.0,30.28,NW,323,0.0,0.0,83,0.00,,,0.00,vanprod-2.3,2013-03-27 02:50:00,
2013-03-26 21:55:00,21.4,17.1,30.28,NW,323,0.0,0.0,83,0.00,,,0.00,vanprod-2.3,2013-03-27 02:55:00,
2013-03-26 22:00:00,21.3,17.0,30.29,NW,323,0.0,0.0,83,0.00,,,0.00,vanprod-2.3,2013-03-27 03:00:00,
2013-03-26 22:05:00,21.3,17.0,30.29,NW,323,0.0,0.0,83,0.00,,,0.00,vanprod-2.3,2013-03-27 03:05:00,
2013-03-26 22:10:00,21.3,17.0,30.29,NW,323,0.0,0.0,83,0.00,,,0.00,vanprod-2.3,2013-03-27 03:10:00,
2013-03-26 22:15:00,21.1,16.8,30.29,NW,323,0.0,0.0,83,0.00,,,0.00,vanprod-2.3,2013-03-27 03:15:00,
2013-03-26 22:20:00,20.9,16.8,30.29,NW,323,0.0,0.0,84,0.00,,,0.00,vanprod-2.3,2013-03-27 03:20:00,
2013-03-26 22:25:00,20.9,16.8,30.29,NW,323,0.0,0.0,84,0.00,,,0.00,vanprod-2.3,2013-03-27 03:25:00,
2013-03-26 22:30:00,20.8,16.7,30.29,NW,323,0.0,0.0,84,0.00,,,0.00,vanprod-2.3,2013-03-27 03:30:00,
2013-03-26 22:35:00,20.8,17.0,30.29,NW,323,0.0,0.0,85,0.00,,,0.00,vanprod-2.3,2013-03-27 03:35:00,
2013-03-26 22:40:00,20.8,17.0,30.29,NW,323,0.0,0.0,85,0.00,,,0.00,vanprod-2.3,2013-03-27 03:40:00,
2013-03-26 22:45:00,20.6,16.8,30.29,NW,323,0.0,0.0,85,0.00,,,0.00,vanprod-2.3,2013-03-27 03:45:00,
2013-03-26 22:50:00,20.8,16.7,30.29,NW,323,0.0,0.0,84,0.00,,,0.00,vanprod-2.3,2013-03-27 03:50:00,
2013-03-26 22:55:00,20.8,16.7,30.29,NW,323,0.0,0.0,84,0.00,,,0.00,vanprod-2.3,2013-03-27 03:55:00,
2013-03-26 23:00:00,20.8,16.7,30.29,NW,323,0.0,0.0,84,0.00,,,0.00,vanprod-2.3,2013-03-27 04:00:00,
2013-03-26 23:05:00,20.8,16.7,30.29,NW,323,0.0,0.0,84,0.00,,,0.00,vanprod-2.3,2013-03-27 04:05:00,
2013-03-26 23:10:00,20.8,16.5,30.29,NW,323,0.0,0.0,83,0.00,,,0.00,vanprod-2.3,2013-03-27 04:10:00,
2013-03-26 23:15:00,20.5,16.2,30.29,NW,323,0.0,0.0,83,0.00,,,0.00,vanprod-2.3,2013-03-27 04:15:00,
2013-03-26 23:20:00,20.3,16.2,30.29,NW,323,0.0,0.0,84,0.00,,,0.00,vanprod-2.3,2013-03-27 04:20:00,
2013-03-26 23:25:00,20.1,16.1,30.29,NW,323,0.0,0.0,84,0.00,,,0.00,vanprod-2.3,2013-03-27 04:25:00,
2013-03-26 23:30:00,20.0,16.2,30.29,NW,323,0.0,0.0,85,0.00,,,0.00,vanprod-2.3,2013-03-27 04:30:00,
2013-03-26 23:35:00,19.8,16.0,30.29,NW,323,0.0,0.0,85,0.00,,,0.00,vanprod-2.3,2013-03-27 04:35:00,
2013-03-26 23:40:00,19.7,15.9,30.29,NW,323,0.0,0.0,85,0.00,,,0.00,vanprod-2.3,2013-03-27 04:40:00,
2013-03-26 23:45:00,19.5,15.7,30.29,NW,323,0.0,0.0,85,0.00,,,0.00,vanprod-2.3,2013-03-27 04:45:00,
2013-03-26 23:50:00,19.5,15.7,30.29,NW,323,0.0,0.0,85,0.00,,,0.00,vanprod-2.3,2013-03-27 04:50:00,
2013-03-26 23:55:00,19.5,15.7,30.29,NW,323,0.0,0.0,85,0.00,,,0.00,vanprod-2.3,2013-03-27 04:55:00,